Погода в Марьяновке

Украина / Волынская область     50°27′13″N   24°49′02″E
темп.,
°C
ветер,
м/с
пор.,
м/с
влажн.,
%
обл.,
%
осадки,
мм/ч
давл.,
гПа
погр.,
м
9 мая, вс
вс900:00+3з35902 0.0 102267
03:00+2з34913 0.0 102358
06:00+1зюз22905 0.0 102428
09:00+8ююз22727 0.0 1024280
12:00+12юз34555 0.0 10241435
15:00+14ююз34495 0.0 10231893
18:00+15ююз345256 0.0 10221673
21:00+10юв34705 0.0 102339
10 мая, пн
пн1000:00+8ююв498129 0.0 1024133
03:00+7ююв3107890 0.0 1024183
06:00+6юв411765 0.0 1023198
09:00+12ююв612665 0.0 1023424
12:00+16ююв710576 0.0 1022909
15:00+19ююв795322 0.0 10211179
18:00+18юв696314 0.0 10201044
21:00+12юв411845 0.0 1021196
11 мая, вт
вт1100:00+11юв5148321 0.0 1021293
03:00+9вюв513805 0.0 1021268
06:00+8вюв514812 0.0 1021283
09:00+12юв713690 0.0 1021467
12:00+17юв810590 0.0 10201001
15:00+19вюв79510 0.0 10181218
18:00+17вюв69580 0.0 10171025
21:00+12вюв513720 0.0 1017265
12 мая, ср
ср1200:00+11вюв615840 0.0 1017376
03:00+10вюв5129115 0.0 1015278
06:00+9в5129693 0.0 1014289
09:00+13вюв711791 0.0 1014688
12:00+15вюв79591 0.0 10131330
15:00+16в785525 0.0 10111743
18:00+13в7967100 0.0 10111042
21:00+9вюв5117094 0.0 1010425
13 мая, чт
чт1300:00+6в49882 0.0 1010184
03:00+5в49940 0.0 1008173
06:00+5в411930 0.0 1007238
09:00+9вюв61184100 0.0 1006493
12:00+10вюв51091100 0.1 1005588
15:00+10юв4697100 1.1 1005297
18:00+14юв4683100 0.4 1004723
21:00+11юв61294100 0.9 1005426